This is the latest recevied weather packets stored in our database for station/object AG1T-1. If no packets are shown the sender has not sent any weather packets the latest 1 day(s).
| Time | Temp. | Humidity | Pressure | Rain* | Wind** | Luminosity | Snow |
|---|---|---|---|---|---|---|---|
| 1778048403 | 11.67° C | 58% | 1015.3 hPa | 0 mm | 1.34 m/s, 332° | 0 W/m² | - |
| 1778047803 | 11.67° C | 55% | 1015 hPa | 0 mm | 1.79 m/s, 328° | 0 W/m² | - |
| 1778047203 | 11.67° C | 59% | 1014.9 hPa | 0 mm | 0.89 m/s, 315° | 0 W/m² | - |
| 1778046603 | 12.78° C | 59% | 1014.8 hPa | 0 mm | 0.89 m/s, 316° | 0 W/m² | - |
| 1778046003 | 12.78° C | 48% | 1014.5 hPa | 0 mm | 0.89 m/s, 328° | 0 W/m² | - |
| 1778045403 | 12.22° C | 50% | 1014.2 hPa | 0 mm | 1.34 m/s, 341° | 0 W/m² | - |
| 1778044803 | 11.67° C | 70% | 1014 hPa | 0 mm | 0 m/s | 0 W/m² | - |
| 1778044203 | 11.67° C | 73% | 1014 hPa | 0.25 mm | 0 m/s | 0 W/m² | - |
| 1778043603 | 11.67° C | 72% | 1013.9 hPa | 0.25 mm | 0 m/s | 0 W/m² | - |
| 1778043003 | 11.67° C | 71% | 1013.8 hPa | 0.25 mm | 0 m/s | 0 W/m² | - |
| 1778042403 | 12.22° C | 69% | 1013.6 hPa | 0.25 mm | 0 m/s | 0 W/m² | - |
| 1778041803 | 12.22° C | 67% | 1013.5 hPa | 0.25 mm | 0.45 m/s, 181° | 0 W/m² | - |
| 1778041203 | 12.22° C | 69% | 1013.4 hPa | 0.25 mm | 0 m/s | 0 W/m² | - |
| 1778040603 | 12.78° C | 70% | 1013.3 hPa | 0 mm | 0 m/s | 0 W/m² | - |
| 1778040003 | 12.78° C | 70% | 1013.3 hPa | 0 mm | 0 m/s | 0 W/m² | - |
| 1778039403 | 12.78° C | 71% | 1013.1 hPa | 0 mm | 0 m/s | 0 W/m² | - |
| 1778038803 | 12.78° C | 70% | 1013 hPa | 0 mm | 0 m/s | 0 W/m² | - |
| 1778038203 | 13.33° C | 70% | 1012.8 hPa | 0 mm | 0 m/s | 0 W/m² | - |
| 1778037603 | 13.33° C | 69% | 1013 hPa | 0 mm | 0 m/s | 0 W/m² | - |
| 1778037003 | 13.33° C | 68% | 1012.8 hPa | 0 mm | 0 m/s | 0 W/m² | - |
| 1778036403 | 13.89° C | 65% | 1012.6 hPa | 0 mm | 0 m/s | 0 W/m² | - |
| 1778035803 | 14.44° C | 62% | 1012.3 hPa | 0 mm | 0 m/s | 0 W/m² | - |
| 1778035203 | 14.44° C | 58% | 1012.2 hPa | 0 mm | 0 m/s | 0 W/m² | - |
| 1778034603 | 15° C | 56% | 1011.9 hPa | 0 mm | 0 m/s | 0 W/m² | - |
| 1778034003 | 15.56° C | 54% | 1011.8 hPa | 0 mm | 0 m/s | 9 W/m² | - |
* Rain latest hour (hover to see other rain measurements)
** Current wind speed in m/s (hover to see current wind gust speed)